Regional Weather Roundup
Issued by NWS

Home | Current Version | Previous Version | Graphics & Text | Print | Product List | Glossary On
Versions: 1 2 3 4 5 6 7 8 9 10 11 12 13 14 15 16 17 18 19 20 21 22 23 24 25 26 27 28 29 30 31 32 33 34 35 36 37 38 39 40 41 42 43 44 45 46 47 48 49 50
550
ASUS43 KLSX 260007
RWRMO

WEATHER SUMMARY FOR MISSOURI
NATIONAL WEATHER SERVICE SPRINGFIELD MO
700 PM CDT WED MAY 25 2016

NOTE: "FAIR" INDICATES FEW OR NO CLOUDS BELOW 12,000 FEET WITH NO
       SIGNIFICANT WEATHER AND/OR OBSTRUCTIONS TO VISIBILITY.
       CURRENT SKY AND/OR WEATHER CONDITIONS ARE NOT AVAILABLE FOR
       CHILLICOTHE AND FARMINGTON.

MOZ001>031-035>038-043-044-053-054-260100-
...NORTHERN AND WESTERN MISSOURI...

CITY           SKY/WX    TMP DP  RH WIND       PRES   REMARKS
KANSAS CTY INT MOSUNNY   80  67  64 S12       29.85S
6HR MIN TEMP:  72; 6HR MAX TEMP:  82;

KANSAS C DTWN  MOSUNNY   82  66  58 S14G22    29.84S
6HR MIN TEMP:  76; 6HR MAX TEMP:  84; 6HR PCP: TRACE;

LEE`S SUMMIT   SUNNY     81  66  60 S18G24    29.86F
6HR MIN TEMP:  75; 6HR MAX TEMP:  84;

ST JOSEPH      CLOUDY    81  67  62 S12       29.83F
6HR MIN TEMP:  73; 6HR MAX TEMP:  82;

CHILLICOTHE      N/A     82  64  54 S12       29.87R
6HR MIN TEMP:  79; 6HR MAX TEMP:  85;

KIRKSVILLE     SUNNY     81  63  54 S7        29.89R
6HR MIN TEMP:  76; 6HR MAX TEMP:  83;


$$
MOZ066>068-077>081-088>096-101>105-260100-
...SOUTHWEST MISSOURI...

CITY           SKY/WX    TMP DP  RH WIND       PRES   REMARKS
SPRINGFIELD    SUNNY     78  65  63 S16       29.93S
6HR MIN TEMP:  73; 6HR MAX TEMP:  83;

JOPLIN         PTSUNNY   79  71  76 S9        29.90F
6HR MIN TEMP:  79; 6HR MAX TEMP:  84;

BRANSON        MOSUNNY   77  68  73 S6        29.98S

$$
MOZ032>034-039>042-045>050-055>058-069>072-260100-
...CENTRAL MISSOURI...

CITY           SKY/WX    TMP DP  RH WIND       PRES   REMARKS
COLUMBIA       SUNNY     81  63  54 S12       29.91R
6HR MIN TEMP:  77; 6HR MAX TEMP:  83;

JEFFERSON CITY SUNNY     82  63  52 S10       29.90S
6HR MIN TEMP:  78; 6HR MAX TEMP:  84;

ROLLA          SUNNY     78  63  59 S10       29.93F
6HR MIN TEMP:  72; 6HR MAX TEMP:  79;

SEDALIA        SUNNY     81  65  58 S13       29.90S
6HR MIN TEMP:  79; 6HR MAX TEMP:  84;

WHITEMAN AFB   MOSUNNY   81  67  61 S9        29.87S
WARRENSBURG    SUNNY     81  64  57 S8        29.87S

$$
MOZ051-052-059>065-260100-
...EAST CENTRAL MISSOURI...

CITY           SKY/WX    TMP DP  RH WIND       PRES   REMARKS
ST LOUIS INTL  MOSUNNY   82  64  54 SW14      29.93S
6HR MIN TEMP:  76; 6HR MAX TEMP:  84;

SPIRIT OF STL  SUNNY     81  64  56 S6        29.91S
ST CHARLES     SUNNY     82  65  56 S14       29.91R
6HR MIN TEMP:  78; 6HR MAX TEMP:  84;


$$
MOZ072>076-082>087-097>100-106>115-260100-
...SOUTH CENTRAL AND SOUTHEAST MISSOURI...

CITY           SKY/WX    TMP DP  RH WIND       PRES   REMARKS
CAPE GIRARDEAU CLOUDY    74  68  81 S14       30.02R
6HR MIN TEMP:  72; 6HR MAX TEMP:  79;

FARMINGTON     MOSUNNY   76  66  71 S13       29.99S
6HR MIN TEMP:  75; 6HR MAX TEMP:  79;

POPLAR BLUFF   MOSUNNY   75  66  73 S8        30.02R
6HR MIN TEMP:  74; 6HR MAX TEMP:  78; 6HR PCP: TRACE;

WEST PLAINS    SUNNY     76  64  66 S10       30.01S
6HR MIN TEMP:  65; 6HR MAX TEMP:  77; 6HR PCP:  0.08;


$$



USA.gov is the U.S. government's official web portal to all federal, state and local government web resources and services.